Regional Weather Roundup
Issued by NWS

Home | Current Version | Previous Version | Graphics & Text | Print | Product List | Glossary On
Versions: 1 2 3 4 5 6 7 8 9 10 11 12 13 14 15 16 17 18 19 20 21 22 23 24 25 26 27 28 29 30 31 32 33 34 35 36 37 38 39 40 41 42 43 44 45 46 47 48 49 50
000
ASUS43 KDMX 251301
RWRIA

WEATHER ROUNDUP FOR IOWA
NATIONAL WEATHER SERVICE DES MOINES IA
700 AM CST SAT FEB 25 2017

NOTE: "FAIR" INDICATES FEW OR NO CLOUDS BELOW 12,000 FEET WITH NO
SIGNIFICANT WEATHER AND/OR OBSTRUCTIONS TO VISIBILITY.

* - THESE STATIONS ARE NOT NWS STATIONS...THUS NOT UNDER NWS
QUALITY CONTROL.  THEY ALSO DO NOT REPORT WEATHER SUCH
AS PRECIPITATION OR FOG.

IAZ001>003-012>014-020>022-031>034-043>046-251400-
   NORTHWEST IOWA

CITY           SKY/WX    TMP DP  RH WIND       PRES   REMARKS
CARROLL *      CLEAR     18  14  86 NW16G24   30.04R WCI   3
CHEROKEE *     CLEAR     14  12  92 NW3       30.06R
DENISON *      CLEAR     16  12  86 NW7       30.05S WCI   6
LE MARS *      CLEAR     12  10  92 S5        30.09S WCI   4
SHELDON *      CLEAR     12  14 100 W10       30.02S WCI  -1
SIOUX CITY     CLOUDY    13   9  84 NW6       30.09F WCI   4
SPENCER        CLEAR      9   5  84 W10       30.02R WCI  -5
STORM LAKE *   CLEAR      9   7  92 W10       30.03R WCI  -6
$$

IAZ055>058-069>071-079>083-090>094-251400-
   SOUTHWEST IOWA

CITY           SKY/WX    TMP DP  RH WIND       PRES   REMARKS
ATLANTIC *     CLEAR     18  12  79 NW13      30.07S WCI   4
AUDUBON *      CLEAR     16  10  79 NW9       30.05R WCI   4
CLARINDA *     CLEAR     19  14  79 NW9G15    30.12S WCI   9
COUNCIL BLFS * CLOUDY    16  16 100 NW9       30.09S WCI   4
CRESTON *      CLEAR     16  10  79 NW14      30.05R WCI   1
HARLAN  *      CLEAR     16  14  93 NW8       30.11R WCI   5
LAMONI         CLEAR     14   9  80 W10       30.04R WCI   1
RED OAK *      CLEAR     18  14  86 NW12      30.09F WCI   5
SHENANDOAH *   PTCLDY    16  12  86 CALM      30.12S
$$

IAZ047>049-059>061-072>074-084-251400-
   CENTRAL IOWA

CITY           SKY/WX    TMP DP  RH WIND       PRES   REMARKS
AMES           CLEAR     15  10  80 NW15      30.01R WCI   0
ANKENY *       CLEAR     16   9  73 NW13G21   30.03R WCI   2
BOONE *        CLEAR     14   7  73 NW17      29.99R WCI  -3
CHARITON *     CLEAR     16  10  79 NW14G20   30.02R WCI   1
DES MOINES     PTCLDY    18  10  71 NW16G24   30.02R WCI   3
GRINNELL*      CLEAR     15  10  83 NW13      29.98R WCI   0
KNOXVILLE *    CLEAR     16   9  73 NW17      29.99R WCI   0
MARSHALLTOWN   CLEAR     14   9  80 NW20      29.96R WCI  -3
NEWTON *       CLEAR     16  10  79 NW17      29.99R WCI   0
PELLA *        CLEAR     16  11  80 NW13G18   30.01S WCI   2
PERRY *          N/A     17  12  80 NW14      30.03R WCI   3
$$

IAZ004>006-015-016-023>025-035-036-251400-
   NORTH CENTRAL IOWA

CITY           SKY/WX    TMP DP  RH WIND       PRES   REMARKS
ALGONA *       LGT SNOW  12   7  79 NW16      29.98R VSB 3/4 WCI  -4
CLARION *      CLEAR     10   5  79 NW15      29.99R WCI  -6
ESTHERVILLE    CLEAR     12   7  80 NW16      29.99R WCI  -5
FORT DODGE *   CLEAR     10   3  72 NW6       30.01R WCI   1
MASON CITY     CLEAR     11   7  84 NW20      29.95R WCI  -7
FOREST CITY *    N/A     10   7  85 NW15      29.95R WCI  -6
WEBSTER CITY * CLEAR     12   5  73 NW17      29.98R WCI  -5
IOWA FALLS *     N/A     15   9  80 NW20G25   29.96S WCI  -3
$$

IAZ007>011-017>019-026>030-037>042-050>054-066-251400-
   NORTHEAST IOWA

CITY           SKY/WX    TMP DP  RH WIND       PRES   REMARKS
CEDAR RAPIDS   CLEAR     15  12  88 W15       29.92R WCI   0
CHARLES CITY * MOCLDY    14   9  79 NW15      29.91R WCI  -1
CLINTON *      PTCLDY    18  14  84 W15       29.87R WCI   4
DECORAH *      CLEAR     14   5  67 NW13G20   29.85R WCI   0
DUBUQUE        MOCLDY    17  10  74 NW13      29.83R WCI   4
MONTICELLO *   CLEAR     16   9  73 NW15G23   29.88R WCI   1
OELWEIN *      CLEAR     14  10  85 NW18      29.89R WCI  -3
WATERLOO       CLEAR     15   9  76 NW14G22   29.93R WCI   0
$$

IAZ064-065-067-068-078-251400-
   EAST CENTRAL IOWA

CITY           SKY/WX    TMP DP  RH WIND       PRES   REMARKS
DAVENPORT      CLEAR     18  12  77 W20G25    29.89R WCI   2
IOWA CITY      CLEAR     19  12  74 NW17G25   29.95R WCI   4
MUSCATINE *    CLEAR     19  12  73 NW16      29.95R WCI   5
QUAD CITIES    CLEAR     22  12  65 NW22G30   29.89R WCI   6
$$

IAZ062-063-075>077-085>089-095>099-251400-
   SOUTHEAST IOWA

CITY           SKY/WX    TMP DP  RH WIND       PRES   REMARKS
BURLINGTON     CLEAR     20  13  74 NW13G22   29.95R WCI   7
FAIRFIELD *    CLEAR     18  10  73 NW15      29.97R WCI   3
KEOKUK *       PTCLDY    21  14  73 NW13G20   29.99R WCI   9
CENTERVILLE *    N/A     16  12  86 W10       30.03R WCI   3
OTTUMWA        CLEAR     17  11  77 NW13      29.99R WCI   4
WASHINGTON *   CLEAR     18  14  86 NW15      29.97R WCI   3
$$

ABBREVIATIONS USED IN REMARKS
   TC - TEMPERATURES IN CELSIUS
  WCI - WIND CHILL INDEX
   HX - HEAT INDEX
  VSB - VISIBILITY
$$





USA.gov is the U.S. government's official web portal to all federal, state and local government web resources and services.